User: anonymous   Login
Location: Unspecified
(0.0000°N, 0.0000°E)
Time: 19:16:03
(UTC+00:00)
Language:

EGRS 8 - Orbit

View from above orbital plane
View from above orbital plane
View from above satellite
View from above satellite

Ground track
Ground track

The orbit data is extracted from the following two-line orbital elements,

1 02520U 66089B   18016.05359728 -.00000003  00000-0 -24451-2 0  9996
2 02520  89.6679  58.4896 0016168 136.8855 223.3265  8.58903503610588
Epoch (UTC): 16 January 2018 01:17:10
Eccentricity: 0.0016168
inclination: 89.6679°
perigee height: 3677 km
apogee height: 3710 km
right ascension of ascending node: 58.4896°
argument of perigee: 136.8855°
revolutions per day: 8.58903503
mean anomaly at epoch: 223.3265°
orbit number at epoch: 61058

The dashed part of the orbit path shows where the satellite is in the earth's shadow,  

DLR